DO9LL-1 Weather Reports


Display with metric or nautical units.
time (UTC)temp
F
wind
direction
speed
MPH
gust
MPH
rain 1hr
in
rain 24hr
in
rain mn
in
humidity
%
barometer
mb
20260505054217 48 314 0.0 2.0 0.02 0.60 0.08 97 1009.9
20260505053234 49 348 1.0 4.0 0.02 0.60 0.08 97 1009.8
20260505052231 49 313 0.0 2.0 0.02 0.60 0.08 97 1009.7
20260505051228 49 345 0.0 2.0 0.01 0.59 0.07 97 1009.9
20260505050226 49 342 0.0 2.0 0.02 0.59 0.07 97 1009.9
20260505041230 50 332 0.0 2.0 0.01 0.58 0.06 97 1009.9
20260505040227 50 321 1.0 2.0 0.00 0.57 0.05 97 1009.9
20260505035224 51 325 0.0 3.0 0.00 0.57 0.05 97 1009.9
20260505034221 51 347 1.0 3.0 0.00 0.57 0.05 97 1009.9
20260505033217 52 334 0.0 1.0 0.00 0.57 0.05 97 1009.9
20260505032235 52 324 1.0 3.0 0.00 0.57 0.05 97 1009.9
20260505031231 52 348 0.0 1.0 0.00 0.57 0.05 97 1010.0
20260505030229 52 305 0.0 2.0 0.00 0.57 0.05 97 1009.9
20260505025225 52 315 0.0 2.0 0.00 0.57 0.05 97 1009.9
20260505024222 53 341 0.0 1.0 0.00 0.57 0.05 97 1010.0
20260505023219 53 329 0.0 2.0 0.00 0.57 0.05 97 1009.9
20260505022216 53 311 0.0 2.0 0.00 0.57 0.05 97 1010.0
20260505021233 53 328 1.0 4.0 0.00 0.57 0.05 97 1010.1
20260505020230 54 298 0.0 3.0 0.00 0.57 0.05 97 1010.0
20260505015227 54 353 0.0 1.0 0.00 0.57 0.05 97 1010.2
20260505014223 55 337 0.0 2.0 0.01 0.57 0.05 97 1010.0
20260505013221 55 337 0.0 2.0 0.01 0.57 0.05 97 1010.2
20260505012217 55 0.0 0.0 0.01 0.57 0.05 97 1010.3
20260505011234 56 321 0.0 2.0 0.01 0.57 0.05 97 1010.4
20260505010231 56 0.0 0.0 0.02 0.57 0.05 97 1010.3
20260505005228 56 0.0 0.0 0.02 0.57 0.05 97 1010.4
20260505004225 56 0.0 0.0 0.01 0.56 0.04 97 1010.5
20260505003222 56 0.0 0.0 0.02 0.56 0.04 97 1010.5
20260505002219 56 0.0 0.0 0.02 0.56 0.04 97 1010.6
20260505001216 56 0.0 0.0 0.02 0.56 0.04 97 1010.6
20260505000233 56 0.0 0.0 0.02 0.55 0.03 97 1010.7
20260504235229 57 0.0 0.0 0.02 0.55 0.03 97 1010.9
20260504234226 57 0.0 0.0 0.02 0.55 0.03 97 1010.8
20260504233223 57 0.0 0.0 0.02 0.54 0.02 97 1011.0
20260504232220 57 0.0 0.0 0.02 0.54 0.02 97 1011.2
20260504231217 57 0.0 0.0 0.02 0.54 0.02 97 1011.1
20260504230234 57 0.0 0.0 0.01 0.53 0.01 97 1011.2
20260504225231 56 0.0 0.0 0.01 0.53 0.01 97 1011.3
20260504224228 56 0.0 0.0 0.01 0.53 0.01 97 1011.3
20260504223225 56 0.0 0.0 0.00 0.52 0.00 97 1011.4
20260504222222 56 0.0 0.0 0.00 0.52 0.00 97 1011.4
20260504221219 57 0.0 0.0 0.00 0.52 0.00 97 1011.5
20260504220216 56 0.0 0.0 0.00 0.52 0.52 97 1011.5
20260504215233 56 0.0 0.0 0.00 0.52 0.52 97 1011.6
20260504214230 57 0.0 0.0 0.00 0.52 0.52 97 1011.8
20260504213227 57 0.0 0.0 0.00 0.52 0.52 96 1011.7
20260504212224 57 0.0 0.0 0.00 0.52 0.52 96 1011.8
20260504211221 57 0.0 0.0 0.00 0.52 0.52 96 1011.8
20260504210218 57 0.0 0.0 0.00 0.52 0.52 96 1012.0
20260504205235 57 0.0 0.0 0.00 0.52 0.52 96 1012.0
20260504204232 57 0.0 0.0 0.00 0.52 0.52 96 1011.8
20260504203228 57 0.0 0.0 0.01 0.52 0.52 96 1011.8
20260504202225 57 0.0 0.0 0.01 0.52 0.52 96 1011.9
20260504201222 57 0.0 0.0 0.01 0.52 0.52 96 1011.8
20260504200219 57 0.0 0.0 0.02 0.52 0.52 96 1011.8
20260504195216 57 0.0 0.0 0.02 0.52 0.52 96 1011.8
20260504194233 57 0.0 0.0 0.03 0.52 0.52 95 1011.9
20260504193229 57 0.0 0.0 0.08 0.51 0.51 95 1011.8
20260504192226 57 0.0 0.0 0.25 0.51 0.51 95 1011.7
20260504191223 57 0.0 0.0 0.38 0.51 0.51 95 1011.8
20260504190220 56 0.0 0.0 0.50 0.50 0.50 95 1011.8
20260504185217 56 0.0 0.0 0.50 0.50 0.50 94 1011.7
20260504184234 56 0.0 0.0 0.49 0.49 0.49 94 1011.8
20260504183231 57 1 1.0 2.0 0.43 0.43 0.43 93 1011.7
20260504182228 57 329 1.0 3.0 0.26 0.26 0.26 91 1011.8
20260504181225 59 318 2.0 3.0 0.13 0.13 0.13 89 1011.6
20260504180221 61 301 2.0 7.0 0.00 0.00 0.00 86 1011.6
20260504175218 62 334 1.0 4.0 0.00 0.00 0.00 83 1011.2
20260504174235 64 333 2.0 4.0 0.00 0.00 0.00 76 1011.1
20260504173232 65 149 1.0 2.0 0.00 0.00 0.00 73 1011.1
20260504172229 65 132 0.0 2.0 0.00 0.00 0.00 73 1011.1
20260504171226 65 229 0.0 2.0 0.00 0.00 0.00 73 1011.1
20260504170223 66 164 0.0 2.0 0.00 0.00 0.00 73 1010.9
20260504160224 66 0.0 0.0 0.00 0.00 0.00 69 1011.1
20260504150225 67 235 0.0 3.0 0.00 0.00 0.00 68 1011.3
20260504141229 67 245 1.0 2.0 0.00 0.00 0.00 68 1011.6
20260504140225 67 244 0.0 2.0 0.00 0.00 0.00 67 1011.7
20260504130226 67 238 1.0 3.0 0.00 0.00 0.00 69 1011.9
20260504120226 66 251 1.0 3.0 0.00 0.00 0.00 71 1012.1
20260504110226 63 257 1.0 3.0 0.00 0.00 0.00 77 1012.4
20260504100225 65 153 1.0 3.0 0.00 0.00 0.00 72 1012.3
20260504081223 61 192 0.0 1.0 0.00 0.00 0.00 82 1012.4
20260504080220 61 173 0.0 2.0 0.00 0.00 0.00 83 1012.3
20260504070219 59 0.0 0.0 0.00 0.00 0.00 89 1012.1
20260504060219 57 249 0.0 1.0 0.00 0.01 0.00 93 1011.6